Location: Aubervilles
(48.9167°N, 2.3833°E)
Time: 16:27:04
(UTC+00:00)

Cosmos 1943 Rocket - Pass Details

Date: 03 February 2023
Orbit: 811 x 844 km, 71.0° (Epoch: 30 March)

Event Time Altitude Azimuth Distance (km) Brightness Sun altitude
Rises 20:35:47 0° 333° (NNW) 3,414 5.9 -36.9°
Reaches altitude 10° 20:38:18 10° 337° (NNW) 2,475 5.0 -37.3°
Enters shadow 20:39:52 19° 341° (NNW) 1,907 4.3 -37.5°
